Weather History for Hettinger, ND

Change the Weather History Date:

Thursday, August 22, 2013

  Actual Average Record
Temperature  
Mean Temperature 71 °F -  
Max Temperature 82 °F 83 °F 100 °F (2010)
Min Temperature 59 °F 51 °F 37 °F (1996)
Cooling Degree Days 6 4  
Month to date cooling degree days 53 121  
Year to date cooling degree days 151 321  
Since 1 June cooling degree days 144 316  
Growing Degree Days 20 (Base 50)    
Moisture  
Dew Point 50 °F    
Average Humidity 52    
Maximum Humidity 69    
Minimum Humidity 36    
Precipitation  
Precipitation 0.00 in 0.04 in 0.53 in (2014)
Month to date precipitation 1.52 1.26  
Year to date precipitation 16.22 11.84  
Sea Level Pressure  
Sea Level Pressure 30.11 in    
Wind  
Wind Speed 12 mph (ESE)    
Max Wind Speed 18 mph    
Max Gust Speed 25 mph    
Visibility 10 miles    
Events      
T = Trace of Precipitation, MM = Missing Value Source: NWS Daily Summary

Daily Weather History Graph

Daily Weather History Graph

Search for Another Location

Airport:

Trip Planner

Search our weather history database for the weather conditions in past years. The results will help you decide how hot, cold, wet, or windy it might be!

Date:

Astronomy

Aug. 22, 2013 Rise Set
Actual Time 5:59 AM MDT 7:46 PM MDT
Civil Twilight 5:27 AM MDT 8:18 PM MDT
Nautical Twilight 4:48 AM MDT 8:57 PM MDT
Astronomical Twilight 4:05 AM MDT 9:39 PM MDT
Moon 8:20 PM MDT (8/22) 7:59 AM MDT (8/22)
Length of Visible Light 14h 51m
Length of Day
13h 47m
Waning Gibbous, 96% of the Moon is Illuminated
Aug 22
Waning Gibbous
Aug 28
Last Quarter
Sep 5
New
Sep 12
First Quarter
Sep 19
Full

Hourly Weather History & Observations

Time (MDT) Temp. Dew Point Humidity Pressure Visibility Wind Dir Wind Speed Gust Speed Precip Events Conditions
12:53 AM 60.1 °F 50.0 °F 69% 30.12 in 10.0 mi ENE 11.5 mph - N/A   Clear
1:53 AM 59.0 °F 48.9 °F 69% 30.14 in 10.0 mi ENE 13.8 mph - N/A   Clear
2:53 AM 60.1 °F 48.9 °F 67% 30.13 in 10.0 mi East 15.0 mph - N/A   Scattered Clouds
3:53 AM 61.0 °F 50.0 °F 67% 30.14 in 10.0 mi East 13.8 mph - N/A   Overcast
4:53 AM 60.1 °F 50.0 °F 69% 30.15 in 10.0 mi East 13.8 mph - N/A   Mostly Cloudy
5:53 AM 60.1 °F 48.9 °F 67% 30.16 in 10.0 mi East 9.2 mph - N/A   Overcast
6:53 AM 59.0 °F 48.0 °F 67% 30.18 in 10.0 mi East 8.1 mph - N/A   Scattered Clouds
7:53 AM 61.0 °F 46.9 °F 60% 30.19 in 10.0 mi East 9.2 mph - N/A   Mostly Cloudy
8:53 AM 64.0 °F 45.0 °F 50% 30.20 in 10.0 mi ESE 12.7 mph - N/A   Unknown
9:53 AM 70.0 °F 45.0 °F 41% 30.19 in 10.0 mi ESE 13.8 mph - N/A   Mostly Cloudy
10:53 AM 71.1 °F 46.0 °F 41% 30.19 in 10.0 mi ESE 13.8 mph 20.7 mph N/A   Partly Cloudy
11:53 AM 75.0 °F 48.0 °F 38% 30.17 in 10.0 mi SE 12.7 mph - N/A   Overcast
12:53 PM 77.0 °F 48.0 °F 36% 30.15 in 10.0 mi SE 10.4 mph 19.6 mph N/A   Mostly Cloudy
1:53 PM 80.1 °F 51.1 °F 36% 30.11 in 10.0 mi ESE 15.0 mph 21.9 mph N/A   Clear
2:53 PM 79.0 °F 51.1 °F 38% 30.09 in 10.0 mi ESE 15.0 mph - N/A   Clear
3:53 PM 80.1 °F 51.1 °F 36% 30.07 in 10.0 mi ESE 12.7 mph 20.7 mph N/A   Clear
4:53 PM 81.0 °F 51.1 °F 35% 30.06 in 10.0 mi ESE 15.0 mph - N/A   Clear
5:53 PM 79.0 °F 51.1 °F 38% 30.04 in 10.0 mi East 12.7 mph 21.9 mph N/A   Clear
6:53 PM 77.0 °F 52.0 °F 42% 30.03 in 10.0 mi SE 10.4 mph - N/A   Mostly Cloudy
7:53 PM 72.0 °F 53.1 °F 51% 30.04 in 10.0 mi SSE 6.9 mph - N/A   Clear
8:53 PM 70.0 °F 55.9 °F 61% 30.05 in 10.0 mi SE 8.1 mph - N/A   Clear
9:53 PM 70.0 °F 57.0 °F 63% 30.04 in 10.0 mi SE 8.1 mph - N/A   Clear
10:53 PM 71.1 °F 55.0 °F 57% 30.03 in 10.0 mi SE 11.5 mph - N/A   Clear
11:53 PM 69.1 °F 54.0 °F 58% 30.01 in 10.0 mi SE 12.7 mph - N/A   Mostly Cloudy